Simultaneous Nadir Overpasses (SNOs) Predictions

Prediction of SNOs between METOP-B and NOAA-19 Satellite Orbit:

Table of predicted SNOs for the next 14.0 days since TLE Epoch: 4/27/2013
Index Date (METOP-B) Time (METOP-B) Lat,Lon (METOP-B) SZA (METOP-B ) Date (NOAA-19) Time (NOAA-19) Lat,Lon (NOAA-19) SZA (NOAA-19 ) Distance(km) Time Diff (sec)
1 05/04/2013 20:37:16 73.81,-134.76 57.58 05/04/2013 20:36:08 73.82,-137.12 57.68 73.02 68
2 05/04/2013 21:28:08 -73.32, 31.43 122.89 05/04/2013 21:26:54 -73.30, 31.36 122.89 2.72 74
3 05/04/2013 22:18:48 73.29,-161.29 57.08 05/04/2013 22:18:02 73.29,-161.40 57.09 3.36 46
4 05/04/2013 23:09:31 -73.25, 5.94 122.97 05/04/2013 23:08:58 -73.27, 5.92 122.94 2.64 33
5 05/05/2013 00:00:11 73.22, 173.22 57.00 05/05/2013 00:00:05 73.21, 173.27 56.99 1.94 6
6
